Flag for Ukraine Weather past 2 weeks in Luhansk, Ukraine

Now
36 °F

Sprinkles. Overcast.


Feels Like: 28 °F
Forecast: 38 / 49 °F
Wind: 10 mph from Southeast

Location: Rostov-Na-Donu

Current Time: Apr 1, 2015 at 6:21:16 AM

Latest Report: Apr 1, 2015 at 6:00 AM


Visibility: N/A

Pressure: 29.80 "Hg

Humidity: 93%

Dew point: 34 °F

Location of LuhanskLocation

Historic Weather in Luhansk — Graph

°F

Luhansk temperature yesterday

Maximum temperature yesterday: 39 °F (at 3:30 PM)
Minimum temperature yesterday: 32 °F (at 4:30 AM)
Average temperature yesterday: 36 °F

Past Weeks' High & Low Weather Summary

 TemperatureHumidityPressure
High66 °F (Mar 26, 1:30 PM)100% (Mar 23, 6:30 AM)30.51 "Hg (Mar 23, 6:30 AM)
Low21 °F (Mar 24, 3:30 AM)24% (Mar 27, 3:00 PM)29.80 "Hg (Apr 1, 2:00 AM)
Average41 °F62%30.14 "Hg
* Reported Mar 17 5:00 AM — Apr 1 5:00 AM, Luhansk, Weather by CustomWeather, © 2015

Note: Actual official high and low records may vary slightly from our data, if they occured in-between our weather recording intervals... More about our weather records

Advertising

Luhansk weather history for previous 24 hours

 ConditionsComfort  
Time TempWeatherWind HumidityBarometerVisibility
5:00 AM
Wed, Apr 1
36 °FSprinkles. Overcast.13 mph93%29.80 "HgN/A
4:30 AM36 °FOvercast.13 mph93%29.80 "HgN/A
4:00 AM36 °FSprinkles. Overcast.15 mph93%29.80 "HgN/A
3:30 AM36 °FSprinkles. Overcast.17 mph87%29.80 "HgN/A
3:00 AM36 °FSprinkles. Overcast.17 mph87%29.80 "HgN/A
2:30 AM36 °FSprinkles. Overcast.15 mph87%29.80 "HgN/A
2:00 AM36 °FSprinkles. Mostly cloudy.17 mph87%29.80 "HgN/A
1:30 AM36 °FSprinkles. Mostly cloudy.15 mph87%29.83 "HgN/A
1:00 AM36 °FMostly cloudy.15 mph87%29.83 "HgN/A
12:30 AM36 °FMostly cloudy.15 mph93%29.83 "HgN/A
12:00 AM36 °FLight rain. Overcast.15 mph93%29.83 "HgN/A
11:30 PM
Tue, Mar 31
37 °FLight rain. Overcast.17 mph87%29.86 "HgN/A
11:00 PM37 °FLight rain. Mostly cloudy.17 mph81%29.86 "HgN/A
10:30 PM37 °FMostly cloudy.15 mph81%29.86 "HgN/A
10:00 PM37 °FMostly cloudy.20 mph81%29.86 "HgN/A
9:30 PM37 °FMostly cloudy.20 mph81%29.86 "HgN/A
9:00 PM37 °FMostly cloudy.24 mph81%29.89 "HgN/A
8:30 PM37 °FMostly cloudy.17 mph81%29.89 "HgN/A
8:00 PM37 °FMostly cloudy.15 mph81%29.89 "Hg5 mi
7:30 PM37 °FMostly cloudy.17 mph81%29.92 "Hg4 mi
7:00 PM37 °FMostly cloudy.17 mph81%29.92 "Hg3 mi
6:30 PM37 °FMostly cloudy.15 mph81%29.92 "Hg3 mi
6:00 PM39 °FMostly cloudy.20 mph75%29.92 "Hg2 mi
5:30 PM39 °FMostly cloudy.17 mph75%29.92 "Hg2 mi
5:00 PM37 °FMore clouds than sun.20 mph81%29.92 "Hg2 mi
4:30 PM39 °FMore clouds than sun.17 mph70%29.95 "Hg3 mi
4:00 PM39 °FMore clouds than sun.17 mph70%29.95 "Hg3 mi
3:30 PM39 °FMore clouds than sun.17 mph70%29.95 "Hg3 mi
3:00 PM37 °FMore clouds than sun.20 mph75%29.95 "Hg2 mi
2:30 PM37 °FMore clouds than sun.17 mph75%29.95 "Hg3 mi
2:00 PM37 °FMore clouds than sun.20 mph75%29.95 "Hg3 mi
1:30 PM37 °FMore clouds than sun.17 mph75%29.95 "Hg3 mi
1:00 PM37 °FMore clouds than sun.17 mph75%29.98 "Hg2 mi
12:30 PM37 °FMore clouds than sun.17 mph75%29.98 "Hg2 mi
12:00 PM36 °FMostly cloudy.17 mph81%29.98 "Hg2 mi
11:30 AM36 °FMostly cloudy.17 mph81%29.98 "Hg2 mi
11:00 AM37 °FMostly cloudy.17 mph75%29.98 "Hg2 mi
10:30 AM36 °FMostly cloudy.17 mph81%30.01 "Hg2 mi
10:00 AM34 °FOvercast.20 mph81%29.98 "Hg2 mi
9:30 AM34 °FOvercast.17 mph81%30.01 "Hg2 mi
9:00 AM34 °FOvercast.17 mph81%30.01 "Hg2 mi
8:30 AM34 °FMore clouds than sun.20 mph81%30.01 "Hg2 mi
8:00 AM34 °FMore clouds than sun.17 mph81%30.01 "Hg2 mi
7:30 AM32 °FOvercast.20 mph87%29.98 "Hg2 mi
7:00 AM32 °FOvercast.20 mph87%29.98 "Hg2 mi
6:30 AM32 °FOvercast.17 mph87%29.98 "Hg3 mi
Weather by CustomWeather, © 2015

See weather overviewHow to use our weather pages